| time (UTC) | temp F | wind direction | speed knots | gust knots | rain 1hr in | rain 24hr in | rain mn in | humidity % | barometer mb |
| 20260506135617 | 57 | 62 | 0.9 | 5.2 | 0.00 | 0.00 | 0.00 | 56 | 1011.2 |
| 20260506134503 | 57 | 42 | 1.7 | 6.1 | 0.00 | 0.00 | 0.00 | 56 | 1011.2 |
| 20260506133603 | 57 | 75 | 1.7 | 5.2 | 0.00 | 0.00 | 0.00 | 57 | 1011.2 |
| 20260506132703 | 57 | 54 | 1.7 | 5.2 | 0.00 | 0.00 | 0.00 | 59 | 1011.3 |
| 20260506131803 | 55 | 80 | 2.6 | 5.2 | 0.00 | 0.00 | 0.00 | 58 | 1011.3 |
| 20260506131118 | 55 | 75 | 1.7 | 5.2 | 0.00 | 0.00 | 0.00 | 58 | 1011.3 |
| 20260506130003 | 55 | 16 | 1.7 | 7.0 | 0.00 | 0.00 | 0.00 | 58 | 1011.3 |
| 20260506125617 | 55 | 24 | 1.7 | 7.0 | 0.00 | 0.00 | 0.00 | 57 | 1011.3 |
| 20260506124503 | 55 | 35 | 1.7 | 6.1 | 0.00 | 0.00 | 0.00 | 57 | 1011.3 |
| 20260506123603 | 55 | 65 | 1.7 | 7.8 | 0.00 | 0.00 | 0.00 | 61 | 1011.3 |
| 20260506122703 | 55 | 340 | 1.7 | 4.3 | 0.00 | 0.00 | 0.00 | 61 | 1011.3 |
| 20260506121803 | 54 | 6 | 2.6 | 7.0 | 0.00 | 0.00 | 0.00 | 62 | 1011.4 |
| 20260506120903 | 55 | 10 | 3.5 | 7.8 | 0.00 | 0.00 | 0.00 | 62 | 1011.5 |
| 20260506120003 | 55 | 353 | 3.5 | 8.7 | 0.00 | 0.00 | 0.00 | 60 | 1011.4 |
| 20260506115403 | 55 | 31 | 1.7 | 9.6 | 0.00 | 0.00 | 0.00 | 63 | 1011.5 |
| 20260506114503 | 54 | 350 | 2.6 | 9.6 | 0.00 | 0.00 | 0.00 | 63 | 1011.4 |
| 20260506113603 | 55 | 347 | 2.6 | 8.7 | 0.00 | 0.00 | 0.00 | 62 | 1011.5 |
| 20260506112703 | 55 | 344 | 2.6 | 7.0 | 0.00 | 0.00 | 0.00 | 63 | 1011.5 |
| 20260506111803 | 54 | 27 | 3.5 | 8.7 | 0.00 | 0.00 | 0.00 | 64 | 1011.6 |
| 20260506110903 | 54 | 360 | 3.5 | 6.1 | 0.00 | 0.00 | 0.00 | 64 | 1011.6 |
| 20260506110003 | 55 | 343 | 2.6 | 7.8 | 0.00 | 0.00 | 0.00 | 60 | 1011.7 |
| 20260506105403 | 55 | 350 | 2.6 | 7.0 | 0.00 | 0.00 | 0.00 | 61 | 1011.7 |
| 20260506104503 | 56 | 66 | 1.7 | 6.1 | 0.00 | 0.00 | 0.00 | 59 | 1011.7 |
| 20260506103603 | 56 | 67 | 3.5 | 7.8 | 0.00 | 0.00 | 0.00 | 58 | 1011.7 |
| 20260506102703 | 56 | 43 | 3.5 | 7.8 | 0.00 | 0.00 | 0.00 | 55 | 1011.6 |
| 20260506101803 | 56 | 80 | 2.6 | 8.7 | 0.00 | 0.00 | 0.00 | 55 | 1011.6 |
| 20260506100903 | 56 | 30 | 2.6 | 8.7 | 0.00 | 0.00 | 0.00 | 57 | 1011.7 |
| 20260506100003 | 55 | 98 | 2.6 | 8.7 | 0.00 | 0.00 | 0.00 | 57 | 1011.7 |
| 20260506095403 | 55 | 83 | 2.6 | 8.7 | 0.00 | 0.00 | 0.00 | 61 | 1011.8 |
| 20260506094503 | 55 | 100 | 3.5 | 7.8 | 0.00 | 0.00 | 0.00 | 59 | 1011.7 |
| 20260506093603 | 54 | 94 | 2.6 | 7.8 | 0.00 | 0.00 | 0.00 | 61 | 1011.8 |
| 20260506092703 | 53 | 68 | 3.5 | 7.0 | 0.00 | 0.00 | 0.00 | 62 | 1011.8 |
| 20260506091803 | 53 | 58 | 2.6 | 6.1 | 0.00 | 0.00 | 0.00 | 62 | 1011.8 |
| 20260506090903 | 54 | 76 | 2.6 | 7.8 | 0.00 | 0.00 | 0.00 | 63 | 1011.8 |
| 20260506090003 | 54 | 62 | 2.6 | 7.8 | 0.00 | 0.00 | 0.00 | 62 | 1011.8 |
| 20260506085403 | 54 | 73 | 1.7 | 7.8 | 0.00 | 0.00 | 0.00 | 64 | 1011.8 |
| 20260506084503 | 52 | 36 | 3.5 | 7.0 | 0.00 | 0.00 | 0.00 | 66 | 1011.7 |
| 20260506083603 | 53 | 74 | 2.6 | 7.8 | 0.00 | 0.00 | 0.00 | 66 | 1011.8 |
| 20260506082703 | 52 | 350 | 1.7 | 7.0 | 0.00 | 0.00 | 0.00 | 67 | 1011.8 |
| 20260506081803 | 52 | 2 | 0.9 | 4.3 | 0.00 | 0.00 | 0.00 | 69 | 1011.8 |
| 20260506080903 | 52 | 86 | 1.7 | 7.0 | 0.00 | 0.00 | 0.00 | 68 | 1011.9 |
| 20260506072703 | 50 | 36 | 2.6 | 6.1 | 0.00 | 0.00 | 0.00 | 74 | 1011.8 |
| 20260506071803 | 50 | 33 | 0.9 | 4.3 | 0.00 | 0.00 | 0.00 | 74 | 1011.7 |
| 20260506070903 | 49 | 25 | 1.7 | 5.2 | 0.00 | 0.00 | 0.00 | 75 | 1011.7 |
| 20260506070219 | 49 | 11 | 0.9 | 3.5 | 0.00 | 0.00 | 0.00 | 75 | 1011.8 |
| 20260506062016 | 46 | 355 | 1.7 | 4.3 | 0.00 | 0.00 | 0.00 | 77 | 1011.8 |
| 20260506060903 | 46 | 358 | 1.7 | 5.2 | 0.00 | 0.00 | 0.00 | 78 | 1011.9 |
| 20260506050903 | 43 | 18 | 0.9 | 3.5 | 0.00 | 0.00 | 0.00 | 81 | 1011.7 |
| 20260506044503 | 42 | 0 | 0.0 | 1.7 | 0.00 | 0.00 | 0.00 | 82 | 1011.6 |
| 20260506043603 | 41 | 0 | 0.0 | 1.7 | 0.00 | 0.00 | 0.00 | 82 | 1011.7 |
| 20260506042703 | 40 | 0 | 0.0 | 0.9 | 0.00 | 0.00 | 0.00 | 83 | 1011.7 |
| 20260506041803 | 40 | 0 | 0.0 | 1.7 | 0.00 | 0.00 | 0.00 | 84 | 1011.8 |
| 20260506040903 | 39 | 0 | 0.0 | 0.9 | 0.00 | 0.00 | 0.00 | 85 | 1011.7 |
| 20260506040003 | 38 | 0 | 0.0 | 1.7 | 0.00 | 0.00 | 0.00 | 86 | 1011.7 |
| 20260506035403 | 38 | 0 | 0.0 | 1.7 | 0.00 | 0.00 | 0.00 | 86 | 1011.8 |
| 20260506034503 | 37 | 0 | 0.0 | 0.0 | 0.00 | 0.00 | 0.00 | 86 | 1011.9 |
| 20260506033603 | 37 | 0 | 0.0 | 0.0 | 0.00 | 0.00 | 0.00 | 85 | 1011.9 |
| 20260506032915 | 37 | 0 | 0.0 | 0.0 | 0.00 | 0.00 | 0.00 | 85 | 1012.0 |
| 20260506032019 | 38 | 0 | 0.0 | 0.0 | 0.00 | 0.00 | 0.00 | 84 | 1012.0 |
| 20260506030903 | 38 | 344 | 0.9 | 1.7 | 0.00 | 0.00 | 0.00 | 84 | 1012.2 |
| 20260506030003 | 38 | 0 | 0.0 | 1.7 | 0.00 | 0.00 | 0.00 | 84 | 1012.2 |
| 20260506025403 | 38 | 0 | 0.0 | 0.9 | 0.00 | 0.00 | 0.00 | 84 | 1012.3 |
| 20260506024503 | 38 | 0 | 0.0 | 0.9 | 0.00 | 0.00 | 0.00 | 84 | 1012.3 |
| 20260506023603 | 38 | 0 | 0.0 | 0.9 | 0.00 | 0.00 | 0.00 | 84 | 1012.4 |
| 20260506022703 | 38 | 0 | 0.0 | 0.9 | 0.00 | 0.00 | 0.00 | 83 | 1012.5 |
| 20260506021803 | 38 | 0 | 0.0 | 1.7 | 0.00 | 0.00 | 0.00 | 84 | 1012.4 |
| 20260506020903 | 38 | 0 | 0.0 | 0.9 | 0.00 | 0.00 | 0.00 | 83 | 1012.5 |
| 20260506020217 | 38 | 0 | 0.0 | 0.9 | 0.00 | 0.00 | 0.00 | 83 | 1012.5 |
| 20260506015403 | 38 | 0 | 0.0 | 0.9 | 0.00 | 0.00 | 0.00 | 83 | 1012.5 |
| 20260506014503 | 38 | 0 | 0.0 | 0.0 | 0.00 | 0.00 | 0.00 | 83 | 1012.5 |
| 20260506013603 | 39 | 0 | 0.0 | 0.0 | 0.00 | 0.00 | 0.00 | 83 | 1012.5 |
| 20260506012703 | 39 | 0 | 0.0 | 0.9 | 0.00 | 0.00 | 0.00 | 82 | 1012.3 |
| 20260506012018 | 39 | 24 | 0.9 | 2.6 | 0.00 | 0.00 | 0.00 | 81 | 1012.1 |
| 20260506010903 | 40 | 341 | 1.7 | 3.5 | 0.00 | 0.00 | 0.00 | 81 | 1012.0 |
| 20260506010003 | 40 | 343 | 0.9 | 2.6 | 0.00 | 0.00 | 0.00 | 81 | 1012.1 |
| 20260506005403 | 40 | 342 | 0.9 | 2.6 | 0.00 | 0.00 | 0.00 | 81 | 1012.1 |
| 20260506004504 | 40 | 351 | 0.9 | 2.6 | 0.00 | 0.00 | 0.00 | 81 | 1012.1 |
| 20260506003603 | 40 | 343 | 1.7 | 5.2 | 0.00 | 0.00 | 0.00 | 80 | 1012.1 |
| 20260506002703 | 40 | 5 | 0.9 | 2.6 | 0.00 | 0.00 | 0.00 | 80 | 1012.1 |
| 20260506001803 | 41 | 341 | 1.7 | 3.5 | 0.00 | 0.00 | 0.00 | 80 | 1012.2 |
| 20260506001117 | 41 | 341 | 0.9 | 3.5 | 0.00 | 0.00 | 0.00 | 79 | 1012.2 |
| 20260506000003 | 41 | 352 | 1.7 | 4.3 | 0.00 | 0.00 | 0.00 | 78 | 1012.2 |
| 20260505235403 | 41 | 348 | 1.7 | 4.3 | 0.00 | 0.00 | 0.00 | 78 | 1012.2 |
| 20260505234503 | 42 | 345 | 2.6 | 6.1 | 0.00 | 0.00 | 0.00 | 78 | 1012.2 |
| 20260505233603 | 42 | 341 | 2.6 | 6.1 | 0.00 | 0.00 | 0.00 | 78 | 1012.3 |
| 20260505232703 | 42 | 339 | 1.7 | 5.2 | 0.00 | 0.00 | 0.00 | 78 | 1012.3 |
| 20260505232017 | 42 | 348 | 2.6 | 6.1 | 0.00 | 0.00 | 0.00 | 77 | 1012.4 |
| 20260505230903 | 42 | 343 | 2.6 | 5.2 | 0.00 | 0.00 | 0.00 | 77 | 1012.3 |
| 20260505230003 | 42 | 345 | 1.7 | 5.2 | 0.00 | 0.00 | 0.00 | 77 | 1012.3 |
| 20260505225616 | 42 | 346 | 1.7 | 5.2 | 0.00 | 0.00 | 0.00 | 77 | 1012.4 |
| 20260505224503 | 42 | 349 | 0.9 | 2.6 | 0.00 | 0.00 | 0.00 | 77 | 1012.4 |
| 20260505223603 | 42 | 347 | 1.7 | 4.3 | 0.00 | 0.00 | 0.00 | 77 | 1012.4 |
| 20260505222703 | 42 | 0 | 0.0 | 2.6 | 0.00 | 0.00 | 0.00 | 77 | 1012.5 |
| 20260505221803 | 42 | 0 | 0.0 | 2.6 | 0.00 | 0.00 | 0.00 | 77 | 1012.4 |
| 20260505220903 | 43 | 2 | 0.9 | 3.5 | 0.00 | 0.00 | 0.00 | 76 | 1012.4 |
| 20260505220003 | 44 | 346 | 1.7 | 4.3 | 0.00 | 0.00 | 0.00 | 76 | 1012.3 |
| 20260505215403 | 44 | 344 | 0.9 | 3.5 | 0.00 | 0.00 | 0.00 | 76 | 1012.3 |
| 20260505214503 | 44 | 324 | 0.9 | 3.5 | 0.00 | 0.00 | 0.00 | 75 | 1012.4 |
| 20260505213818 | 44 | 323 | 1.7 | 3.5 | 0.00 | 0.00 | 0.00 | 75 | 1012.4 |
| 20260505212703 | 45 | 313 | 0.9 | 2.6 | 0.00 | 0.00 | 0.00 | 74 | 1012.4 |
| 20260505211803 | 45 | 0 | 0.0 | 1.7 | 0.00 | 0.00 | 0.00 | 73 | 1012.4 |
| 20260505211116 | 45 | 0 | 0.0 | 2.6 | 0.00 | 0.00 | 0.00 | 72 | 1012.5 |
| 20260505210003 | 46 | 308 | 0.9 | 3.5 | 0.00 | 0.00 | 0.00 | 71 | 1012.4 |
| 20260505205619 | 46 | 303 | 0.9 | 3.5 | 0.00 | 0.00 | 0.00 | 71 | 1012.4 |
| 20260505204503 | 46 | 0 | 0.0 | 2.6 | 0.00 | 0.00 | 0.00 | 71 | 1012.5 |
| 20260505203818 | 46 | 0 | 0.0 | 0.0 | 0.00 | 0.00 | 0.00 | 69 | 1012.5 |
| 20260505202703 | 47 | 0 | 0.0 | 0.0 | 0.00 | 0.00 | 0.00 | 68 | 1012.5 |
| 20260505201803 | 47 | 0 | 0.0 | 1.7 | 0.00 | 0.00 | 0.00 | 68 | 1012.5 |
| 20260505200903 | 47 | 307 | 0.9 | 3.5 | 0.00 | 0.00 | 0.00 | 67 | 1012.4 |
| 20260505200219 | 46 | 307 | 0.9 | 3.5 | 0.00 | 0.00 | 0.00 | 69 | 1012.4 |
| 20260505195403 | 47 | 0 | 0.0 | 0.0 | 0.00 | 0.00 | 0.00 | 69 | 1012.4 |
| 20260505194718 | 47 | 0 | 0.0 | 0.0 | 0.00 | 0.00 | 0.00 | 68 | 1012.2 |
| 20260505193817 | 48 | 0 | 0.0 | 0.0 | 0.00 | 0.00 | 0.00 | 66 | 1012.3 |
| 20260505192916 | 48 | 0 | 0.0 | 0.0 | 0.00 | 0.00 | 0.00 | 65 | 1012.2 |
| 20260505191803 | 48 | 0 | 0.0 | 0.0 | 0.00 | 0.00 | 0.00 | 65 | 1012.2 |
| 20260505190903 | 48 | 0 | 0.0 | 0.0 | 0.00 | 0.00 | 0.00 | 64 | 1012.2 |
| 20260505190003 | 49 | 0 | 0.0 | 0.0 | 0.00 | 0.00 | 0.00 | 64 | 1012.2 |
| 20260505185403 | 49 | 0 | 0.0 | 0.0 | 0.00 | 0.00 | 0.00 | 64 | 1012.1 |
| 20260505184503 | 50 | 0 | 0.0 | 1.7 | 0.00 | 0.00 | 0.00 | 64 | 1012.0 |
| 20260505183603 | 50 | 83 | 0.9 | 3.5 | 0.00 | 0.00 | 0.00 | 66 | 1012.0 |
| 20260505182916 | 50 | 101 | 0.9 | 3.5 | 0.00 | 0.00 | 0.00 | 74 | 1011.9 |
| 20260505181803 | 50 | 95 | 1.7 | 5.2 | 0.00 | 0.00 | 0.00 | 75 | 1011.9 |
| 20260505181119 | 51 | 80 | 1.7 | 5.2 | 0.00 | 0.00 | 0.00 | 76 | 1011.9 |
| 20260505180003 | 51 | 72 | 0.9 | 4.3 | 0.00 | 0.00 | 0.00 | 76 | 1011.9 |
| 20260505175618 | 51 | 72 | 1.7 | 4.3 | 0.00 | 0.00 | 0.00 | 76 | 1011.9 |
| 20260505174717 | 51 | 70 | 2.6 | 6.1 | 0.00 | 0.00 | 0.00 | 76 | 1011.7 |
| 20260505173603 | 52 | 86 | 1.7 | 6.1 | 0.00 | 0.00 | 0.00 | 75 | 1011.6 |
| 20260505172703 | 52 | 94 | 1.7 | 5.2 | 0.00 | 0.00 | 0.00 | 74 | 1011.6 |
| 20260505172019 | 52 | 128 | 1.7 | 3.5 | 0.00 | 0.00 | 0.00 | 71 | 1011.6 |
| 20260505170903 | 52 | 91 | 0.9 | 4.3 | 0.00 | 0.00 | 0.00 | 68 | 1011.5 |
| 20260505170003 | 53 | 96 | 0.9 | 3.5 | 0.00 | 0.00 | 0.00 | 64 | 1011.6 |
| 20260505165617 | 53 | 100 | 0.9 | 4.3 | 0.00 | 0.00 | 0.00 | 62 | 1011.5 |
| 20260505164717 | 53 | 94 | 2.6 | 5.2 | 0.00 | 0.00 | 0.00 | 61 | 1011.5 |
| 20260505163603 | 54 | 78 | 1.7 | 5.2 | 0.00 | 0.00 | 0.00 | 59 | 1011.5 |
| 20260505162915 | 54 | 85 | 1.7 | 5.2 | 0.00 | 0.00 | 0.00 | 58 | 1011.5 |
| 20260505161803 | 55 | 155 | 0.9 | 3.5 | 0.00 | 0.00 | 0.00 | 52 | 1011.4 |
| 20260505160903 | 55 | 133 | 2.6 | 6.1 | 0.00 | 0.00 | 0.00 | 51 | 1011.4 |
| 20260505152703 | 56 | 172 | 4.3 | 10.4 | 0.00 | 0.00 | 0.00 | 55 | 1011.2 |
| 20260505151803 | 56 | 160 | 4.3 | 7.8 | 0.00 | 0.00 | 0.00 | 58 | 1011.1 |
| 20260505150903 | 56 | 172 | 2.6 | 7.8 | 0.00 | 0.00 | 0.00 | 59 | 1011.2 |